2024-110B (60013 NORAD) Tracking and Keplerian Element Data

This shows tracking and keplerian element data for the satellite.

Feedback or suggestion? Click here.




ElementValue
Catalog60013
Name2024-110B
Epoch Orbit3665
Epoch Day35.21386731
Epoch Year2025
RAAN125.6518
Inclination97.5871
Eccentricity0.0012247
Argument of Perigee173.7846
Mean Anonmoly186.3539
Mean Motion15.12769102
Decay Rate0.00012356
L11 60013U 24110B 25035.21386731 .00012356 00000+0 70627-3 0 9995
L22 60013 97.5871 125.6518 0012247 173.7846 186.3539 15.12769102 36658



Live tracking and technical data element details for 2024-110B (NORAD 60013). 2024-110B can be tracked NOW for your location showing map with azimuth and elevation plus other details from your city location.







IsCatalogInMostPopularTable: catalog: 60013, numindb: 52
Update: records affected: 1



GetName: 60013 2024-110B

Hit Count: updated at: Mon, 23 Jun 2025 12:00:39 GMT